Regional Weather Roundup
Issued by NWS

Home | Current Version | Previous Version | Text Only | Print | Product List | Glossary On
Versions: 1 2 3 4 5 6 7 8 9 10 11 12 13 14 15 16 17 18 19 20 21 22 23 24 25 26 27 28 29 30 31 32 33 34 35 36 37 38 39 40 41 42 43 44 45 46 47 48 49 50
000
ASUS43 KIND 220509
RWRIN

WEATHER ROUNDUP FOR INDIANA
NATIONAL WEATHER SERVICE INDIANAPOLIS IN
100 AM EDT WED OCT 22 2014

NOTE: "FAIR" INDICATES FEW OR NO CLOUDS BELOW 12,000 FEET WITH NO
SIGNIFICANT WEATHER AND/OR OBSTRUCTIONS TO VISIBILITY.

* - STATION DOES NOT REPORT WEATHER SUCH AS PRECIPITATION OR FOG.

+ - STATION NOT QUALITY CONTROLLED BY THE NATIONAL WEATHER SERVICE.
    USE DATA WITH CAUTION...ESPECIALLY DEWPOINT AND RELATIVE
    HUMIDITY OBSERVATIONS.

INZ001>003-010>013-019-020-220600-
NORTHWEST INDIANA

CITY           SKY/WX    TMP DP  RH WIND       PRES   REMARKS
GARY /AIRPORT/ CLEAR     46  37  71 SE3       30.25S
KNOX *+        CLEAR     37  34  87 CALM      30.23F
LA PORTE +     CLEAR     36  35  99 CALM      30.25S
MICHIGAN CITY+ CLEAR     36  36 100 CALM      30.25F
MONTICELLO +   PTCLDY    44  38  81 CALM      30.23F
RENSSELAER +   CLEAR     41  37  87 NE5       30.24F
VALPARAISO     CLEAR     38  35  89 CALM      30.25F

$$

LMZ046-743>745-220600-
SOUTHERN LAKE MICHIGAN

STATION/POSITION TIME  TEMP WIND        PRES
                       AIR  DIR/SP/G
                 (UTC) (F)  (DEG/KT/KT) (MB)
MICHIGAN CITY    0500   44  110/  5/  5   N/A

$$

INZ004-005-014>016-021>024-220600-
NORTH CENTRAL INDIANA

CITY           SKY/WX    TMP DP  RH WIND       PRES   REMARKS
GOSHEN         CLEAR     37  35  92 NE3       30.24S
LOGANSPORT +   CLEAR     43  34  70 CALM      30.24F
PERU/GRISSOM   CLEAR     41  38  87 NE3       30.22F
ROCHESTER +    CLEAR     43  37  81 CALM      30.24F
SOUTH BEND     CLEAR     36  32  85 CALM      30.25F
WARSAW +       CLEAR     37  36  93 CALM      30.24S

$$

INZ006>009-017-018-025>027-220600-
NORTHEAST INDIANA

CITY           SKY/WX    TMP DP  RH WIND       PRES   REMARKS
ANGOLA *+        N/A     37  18  44 N3        30.23F
AUBURN +       PTCLDY    41  34  75 N5        30.24S
FORT WAYNE     PTCLDY    42  35  76 N7        30.24S
HUNTINGTON +   PTCLDY    42  37  82 N3        30.22F

$$

INZ028-029-035-036-043>045-051>053-220600-
WEST CENTRAL INDIANA

CITY           SKY/WX    TMP DP  RH WIND       PRES   REMARKS
GREENCASTLE +  MOCLDY    43  39  87 N6        30.22S
LAFAYETTE      CLEAR     42  37  82 NE6       30.24S
TERRE HAUTE    CLEAR     44  39  82 N6        30.23R

$$

INZ030>032-037>040-046>048-054>057-064-065-220600-
CENTRAL INDIANA

CITY           SKY/WX    TMP DP  RH WIND       PRES   REMARKS
CP ATTERBURY + MOCLDY    39  37  93 CALM      30.21S
FRANKFORT +    CLEAR     41  41 100 N3        30.24S
INDIANAPOLIS   PTCLDY    47  37  68 NE12      30.20S
-EAGLE CREEK   MOCLDY    47  38  71 NE5       30.20S
KOKOMO *+      CLEAR     43  34  70 NE6       30.23F
MARION +       CLOUDY    45  36  69 N3        30.23S
MT COMFORT *+  CLOUDY    46  32  57 NE8       30.21S
SHELBYVILLE    CLOUDY    47  39  74 NE7       30.20S
ZIONSVILLE +   CLEAR     43  37  78 NE6       30.22F

$$

INZ033-034-041-042-049-050-058-059-220600-
EAST CENTRAL INDIANA

CITY           SKY/WX    TMP DP  RH WIND       PRES   REMARKS
MUNCIE         CLOUDY    46  38  73 NE6       30.21S

$$

INZ060-061-067>069-081>083-085>088-220600-
SOUTHWEST INDIANA

CITY           SKY/WX    TMP DP  RH WIND       PRES   REMARKS
EVANSVILLE     CLEAR     48  41  76 N6        30.20R
HUNTINGBURG *+ CLEAR     43  37  81 N6        30.20R
WASHINGTON +   CLEAR     45  43  93 N7        30.20S

$$

INZ062-063-066-070>080-084-089>092-220600-
SOUTH CENTRAL AND SOUTHEAST INDIANA

CITY           SKY/WX    TMP DP  RH WIND       PRES   REMARKS
BLOOMINGTON    CLOUDY    46  43  89 N6        30.20S

$$




USA.gov is the U.S. government's official web portal to all federal, state and local government web resources and services.